Regional Weather Roundup
Issued by NWS

Home | Current Version | Previous Version | Graphics & Text | Print | Product List | Glossary On
Versions: 1 2 3 4 5 6 7 8 9 10 11 12 13 14 15 16 17 18 19 20 21 22 23 24 25 26 27 28 29 30 31 32 33 34 35 36 37 38 39 40 41 42 43 44 45 46 47 48 49 50
000
ASUS43 KLMK 282202
RWRKY
KENTUCKY REGIONAL WEATHER ROUNDUP
NATIONAL WEATHER SERVICE LOUISVILLE KY
500 PM EST WED JAN 28 2015

NOTE "FAIR" INDICATES FEW OR NO CLOUDS BELOW 12,000 FEET
WITH NO SIGNIFICANT WEATHER AND/OR OBSTRUCTIONS TO VISIBILITY.

KYZ001>023-026-027-061>063-070>075-282300-
WESTERN AND SOUTH CENTRAL KENTUCKY

CITY           SKY/WX    TMP DP  RH WIND       PRES   REMARKS
PADUCAH        SUNNY     49  31  49 SE10      30.13F
HENDERSON      SUNNY     45  21  39 SE10      30.15F
OWENSBORO      SUNNY     44  22  42 SE10      30.19F
HOPKINSVILLE   SUNNY     48  24  38 SE8       30.17F
BOWLING GREEN  MOSUNNY   46  19  34 SE7       30.22F
GLASGOW        NOT AVBL
$$

KYZ024-025-028>034-038-045-046-053-282300-
NORTH CENTRAL KENTUCKY

CITY           SKY/WX    TMP DP  RH WIND       PRES   REMARKS
LOUISVILLE/SDF MOCLDY    41  14  33 SE12      30.23F
LOUISVILLE/LOU PTCLDY    40  14  34 S7        30.23F
FORT KNOX      MOSUNNY   40  15  36 E3        30.21F
$$

KYZ035>037-039>044-047>052-055>060-089>105-282300-
NORTHEAST KENTUCKY

CITY           SKY/WX    TMP DP  RH WIND       PRES   REMARKS
LEXINGTON      CLEAR     35  18  49 S10       30.25F WCI  27
COVINGTON      MOCLDY    35  19  52 SE10      30.24S WCI  27
FRANKFORT      CLEAR     36  17  46 SE10      30.24F WCI  28
$$

KYZ054-064>069-076>088-106>120-282300-
SOUTHEAST KENTUCKY

CITY           SKY/WX    TMP DP  RH WIND       PRES   REMARKS
JACKSON        CLEAR     36  17  46 CALM      30.26F
LONDON         CLEAR     40  17  39 SE7       30.25F
SOMERSET       NOT AVBL
MIDDLESBORO    NOT AVBL
MONTICELLO     CLEAR     43  12  28 SE7       30.26F
$$



USA.gov is the U.S. government's official web portal to all federal, state and local government web resources and services.